Location: Sungai Jaoh
(2.9167°N, 113.9167°E)
Time: 01:17:28
(UTC+00:00)

Envisat - Pass Details

Date: 28 September 2021
Orbit: 764 x 766 km, 98.2° (Epoch: 17 October)

Event Time Altitude Azimuth Distance (km) Brightness Sun altitude
Rises 20:39:15 0° 27° (NNE) 3,214 6.6 -24.0°
Reaches altitude 10° 20:41:42 10° 36° (NE) 2,290 5.9 -23.4°
Maximum altitude 20:46:19 36° 102° (ESE) 1,186 4.5 -22.2°
Drops below altitude 10° 20:50:56 10° 168° (SSE) 2,297 5.6 -21.0°
Sets 20:53:24 0° 176° (S) 3,225 6.3 -20.4°
